ARSAT 2

Last updated on Mon Oct 14 2024 00:02:40 GMT+0000 (Coordinated Universal Time)

1 40941U 15054B 24287.46198251 -.00000226 00000+0 00000+0 0 9991 2 40941 0.0284 292.5953 0002011 257.6761 277.5782 1.00271712 33181
UTC large
Height (km)
Speed (km/s)
/
Latitude / Longitude
Inclination (degrees)
Orbital Period (minutes)
Azimuth
Elevation
Range (km)
Doppler Factor

Next 0 passes for location: London (51.5072 / 0.1276)

Sorry there are no passes over London.